Weather History for Fond du Lac, WI

Change the Weather History Date:

Friday, February 21, 2014

  Actual Average Record
Temperature  
Mean Temperature 27 °F -  
Max Temperature 36 °F 32 °F 49 °F (1961)
Min Temperature 18 °F 17 °F -15 °F (1963)
Degree Days  
Heating Degree Days 38    
Moisture  
Dew Point 15 °F    
Average Humidity 69    
Maximum Humidity 78    
Minimum Humidity 53    
Precipitation  
Precipitation 0.00 in - - ()
Sea Level Pressure  
Sea Level Pressure 29.37 in    
Wind  
Wind Speed 22 mph (SW)    
Max Wind Speed 29 mph    
Max Gust Speed 40 mph    
Visibility 8 miles    
Events Snow    
Averages and records for this station are not official NWS values.
T = Trace of Precipitation, MM = Missing Value Source: NWS Daily Summary

Daily Weather History Graph

Daily Weather History Graph

Search for Another Location

Airport:

Trip Planner

Search our weather history database for the weather conditions in past years. The results will help you decide how hot, cold, wet, or windy it might be!

Date:

Astronomy

Feb. 21, 2014 Rise Set
Actual Time 6:43 AM CST 5:32 PM CST
Civil Twilight 6:14 AM CST 6:01 PM CST
Nautical Twilight 5:41 AM CST 6:34 PM CST
Astronomical Twilight 5:07 AM CST 7:08 PM CST
Moon No Moon Rise 9:54 AM CST (2/21)
Length of Visible Light 11h 46m
Length of Day
10h 48m
Waning Gibbous, 60% of the Moon is Illuminated
Feb 21
Waning Gibbous
Feb 22
Last Quarter
Mar 1
New
Mar 8
First Quarter
Mar 16
Full

Hourly Weather History & Observations

Time (CST) Temp. Windchill Dew Point Humidity Pressure Visibility Wind Dir Wind Speed Gust Speed Precip Events Conditions
12:53 AM 36.0 °F 23.9 °F 28.9 °F 76% 29.07 in 10.0 mi SW 25.3 mph 35.7 mph N/A   Overcast
1:43 AM 35.1 °F 24.1 °F 28.9 °F 78% 29.05 in 10.0 mi SW 19.6 mph 32.2 mph N/A   Mostly Cloudy
1:51 AM 35.6 °F 24.5 °F 28.4 °F 75% 29.05 in 10.0 mi SW 20.7 mph 33.4 mph N/A   Mostly Cloudy
1:53 AM 35.1 °F 24.5 °F 28.9 °F 78% 29.08 in 10.0 mi SW 18.4 mph 33.4 mph N/A   Mostly Cloudy
2:53 AM 34.0 °F 20.8 °F 27.0 °F 75% 29.13 in 10.0 mi SW 27.6 mph 40.3 mph N/A   Overcast
3:39 AM 30.0 °F 15.2 °F 23.0 °F 75% 29.16 in 10.0 mi SW 28.8 mph 40.3 mph N/A   Overcast
3:53 AM 28.9 °F 15.1 °F 21.9 °F 75% 29.19 in 10.0 mi SW 23.0 mph 39.1 mph N/A   Overcast
4:00 AM 28.0 °F 13.0 °F 21.9 °F 78% 29.17 in 10.0 mi SW 26.5 mph 39.1 mph N/A   Overcast
4:53 AM 26.1 °F 11.3 °F 19.0 °F 75% 29.23 in 10.0 mi SW 23.0 mph 36.8 mph N/A   Overcast
5:53 AM 23.0 °F 7.2 °F 15.1 °F 72% 29.28 in 10.0 mi SW 23.0 mph 35.7 mph 0.00 in   Overcast
6:53 AM 21.0 °F 5.7 °F 14.0 °F 74% 29.30 in 10.0 mi WSW 19.6 mph 29.9 mph 0.00 in   Overcast
7:53 AM 19.9 °F 4.8 °F 12.9 °F 74% 29.33 in 4.0 mi WSW 18.4 mph 31.1 mph 0.00 in Snow Light Snow
8:29 AM 19.0 °F 2.4 °F 10.9 °F 71% 29.31 in 1.8 mi WSW 21.9 mph 34.5 mph 0.00 in Snow Light Snow
8:35 AM 19.0 °F 2.7 °F 12.0 °F 74% 29.31 in 3.0 mi WSW 20.7 mph 29.9 mph 0.00 in Snow Light Snow
8:44 AM 19.0 °F 2.7 °F 12.0 °F 74% 29.32 in 2.0 mi WSW 20.7 mph 29.9 mph 0.00 in Snow Light Snow
8:53 AM 19.0 °F 3.2 °F 10.9 °F 71% 29.35 in 3.0 mi WSW 19.6 mph 31.1 mph 0.00 in Snow Light Snow
9:18 AM 19.0 °F 2.4 °F 10.9 °F 71% 29.33 in 1.8 mi WSW 21.9 mph 33.4 mph 0.00 in Snow Light Snow
9:30 AM 19.0 °F 4.0 °F 10.9 °F 71% 29.33 in 3.0 mi WSW 17.3 mph 31.1 mph 0.00 in Snow Light Snow
9:53 AM 19.0 °F 1.3 °F 10.0 °F 68% 29.37 in 7.0 mi WSW 25.3 mph 40.3 mph 0.00 in Snow Light Snow
10:53 AM 19.9 °F 2.5 °F 10.9 °F 68% 29.39 in 9.0 mi WSW 25.3 mph 38.0 mph 0.00 in Snow Light Snow
11:53 AM 21.0 °F 7.1 °F 12.0 °F 68% 29.41 in 9.0 mi WSW 16.1 mph 33.4 mph 0.00 in Snow Light Snow
12:53 PM 21.9 °F 6.5 °F 12.9 °F 68% 29.44 in 10.0 mi WSW 20.7 mph 29.9 mph 0.00 in   Overcast
1:53 PM 24.1 °F 7.7 °F 12.9 °F 62% 29.46 in 10.0 mi WSW 26.5 mph 40.3 mph N/A   Overcast
2:53 PM 26.1 °F 11.3 °F 12.9 °F 58% 29.48 in 10.0 mi WSW 23.0 mph 40.3 mph N/A   Mostly Cloudy
3:53 PM 27.0 °F 12.2 °F 12.9 °F 56% 29.51 in 10.0 mi WSW 24.2 mph 36.8 mph N/A   Clear
4:53 PM 26.1 °F 12.7 °F 10.9 °F 53% 29.55 in 10.0 mi WSW 18.4 mph 29.9 mph N/A   Clear
5:53 PM 24.1 °F 9.8 °F 10.9 °F 57% 29.58 in 10.0 mi WSW 19.6 mph 31.1 mph N/A   Clear
6:53 PM 21.9 °F 6.2 °F 10.0 °F 60% 29.62 in 10.0 mi WSW 21.9 mph 32.2 mph N/A   Clear
7:53 PM 21.0 °F 6.2 °F 9.0 °F 60% 29.66 in 10.0 mi WSW 18.4 mph 32.2 mph N/A   Clear
8:53 PM 19.9 °F 6.2 °F 9.0 °F 62% 29.70 in 10.0 mi WSW 15.0 mph 23.0 mph N/A   Clear
9:53 PM 19.0 °F 5.6 °F 8.1 °F 62% 29.71 in 10.0 mi WSW 13.8 mph - N/A   Clear
10:53 PM 18.0 °F 4.8 °F 9.0 °F 68% 29.72 in 10.0 mi WSW 12.7 mph 20.7 mph N/A   Clear
11:53 PM 18.0 °F 4.2 °F 8.1 °F 65% 29.72 in 10.0 mi WSW 13.8 mph - N/A   Clear